Kalaeloa, HI

4:13 PM HST on January 22, 2018 (GMT -1000)
Kalaeloa (John Rodgers Field)

Weather History for PHJR - February, 2014

Change the Weather History Date:

Sunday, February 16, 2014

  Actual Average (PHHI) Record (PHHI)
Temperature  
Mean Temperature 72 °F -  
Max Temperature 73 °F 74 °F 79 °F (2011)
Min Temperature 70 °F 61 °F 57 °F (2008)
Cooling Degree Days 6    
Growing Degree Days 22 (Base 50)    
Moisture  
Dew Point 69 °F    
Average Humidity 90    
Maximum Humidity 93    
Minimum Humidity 81    
Precipitation  
Precipitation 0.22 in - - ()
Sea Level Pressure  
Sea Level Pressure 29.97 in    
Wind  
Wind Speed 2 mph (East)    
Max Wind Speed 14 mph    
Max Gust Speed 20 mph    
Visibility 10 miles    
Events Rain    
Averages and records for this station are not official NWS values.
T = Trace of Precipitation, MM = Missing Value Source: NWS Daily Summary

Daily Weather History Graph

Daily Weather History Graph

Search for Another Location

Airport or City:

Trip Planner

Search our weather history database for the weather conditions in past years. The results will help you decide how hot, cold, wet, or windy it might be!

Date:

Astronomy

Feb. 16, 2014 Rise Set
Actual Time 7:02 AM HST 6:30 PM HST
Civil Twilight 6:39 AM HST 6:53 PM HST
Nautical Twilight 6:13 AM HST 7:19 PM HST
Astronomical Twilight 5:47 AM HST 7:45 PM HST
Moon 8:16 PM HST (2/16) 7:56 AM HST (2/16)
Length of Visible Light 12h 14m
Length of Day
11h 28m
Waning Gibbous, 97% of the Moon is Illuminated
Feb 16
Waning Gibbous
Feb 22
Last Quarter
Feb 28
New
Mar 8
First Quarter
Mar 16
Full

Hourly Weather History & Observations

Time (HST) Temp. Dew Point Humidity Pressure Visibility Wind Dir Wind Speed Gust Speed Precip Events Conditions
12:53 AM 71.1 °F 69.1 °F 93% 29.99 in 10.0 mi Calm Calm - 0.01 in Rain Light Rain
1:53 AM 71.1 °F 69.1 °F 93% 29.96 in 10.0 mi ENE 3.5 mph - 0.02 in Rain Light Rain
2:53 AM 71.1 °F 69.1 °F 93% 29.94 in 10.0 mi Calm Calm - 0.00 in Rain Light Rain
3:53 AM 70.0 °F 68.0 °F 93% 29.96 in 10.0 mi Calm Calm - 0.00 in   Clear
4:53 AM 71.1 °F 68.0 °F 90% 29.96 in 10.0 mi Calm Calm - N/A   Clear
5:53 AM 71.1 °F 68.0 °F 90% 29.96 in 10.0 mi Calm Calm - N/A   Clear
6:53 AM 70.0 °F 68.0 °F 93% 29.97 in 10.0 mi Calm Calm - 0.01 in Rain Light Rain
7:53 AM 70.0 °F 68.0 °F 93% 30.01 in 8.0 mi East 3.5 mph - 0.01 in Rain Light Rain
8:53 AM 71.1 °F 69.1 °F 93% 30.01 in 8.0 mi ENE 4.6 mph - 0.04 in Rain Light Rain
9:53 AM 72.0 °F 70.0 °F 93% 30.04 in 6.0 mi Calm Calm - 0.04 in Rain Light Rain
10:53 AM 73.0 °F 71.1 °F 93% 30.01 in 10.0 mi ENE 5.8 mph - 0.02 in Rain Light Rain
11:53 AM 73.9 °F 72.0 °F 93% 29.98 in 10.0 mi Calm Calm - 0.00 in Rain Light Rain
12:53 PM 73.0 °F 68.0 °F 84% 29.96 in 10.0 mi ESE 5.8 mph - 0.00 in Rain Light Rain
1:53 PM 73.0 °F 69.1 °F 87% 29.95 in 10.0 mi Variable 3.5 mph - 0.02 in Rain Light Rain
2:53 PM 73.0 °F 71.1 °F 93% 29.93 in 10.0 mi East 3.5 mph - 0.01 in Rain Light Rain
3:53 PM 73.0 °F 69.1 °F 87% 29.92 in 10.0 mi Calm Calm - 0.01 in   Mostly Cloudy
4:53 PM 73.0 °F 69.1 °F 87% 29.94 in 10.0 mi Variable 5.8 mph - N/A   Mostly Cloudy
5:53 PM 73.0 °F 70.0 °F 90% 29.95 in 10.0 mi Calm Calm - 0.01 in   Scattered Clouds
6:53 PM 71.1 °F 68.0 °F 90% 29.95 in 10.0 mi Variable 3.5 mph - 0.00 in   Mostly Cloudy
7:53 PM 71.1 °F 66.9 °F 87% 29.95 in 10.0 mi ENE 3.5 mph - N/A   Overcast
8:53 PM 73.9 °F 70.0 °F 87% 29.94 in 10.0 mi ESE 10.4 mph 19.6 mph N/A   Mostly Cloudy
9:53 PM 73.9 °F 70.0 °F 87% 29.98 in 10.0 mi Variable 5.8 mph - 0.00 in   Overcast
10:53 PM 73.9 °F 71.1 °F 91% 29.97 in 10.0 mi SSE 13.8 mph - 0.02 in Rain Light Rain
11:53 PM 73.0 °F 66.9 °F 81% 29.99 in 10.0 mi SSE 8.1 mph - 0.00 in Rain Light Rain